STARLINK-37771, 69439

Orbit data source: Space-Track

STARLINK-37771, 69439 is a payload satellite owned by SpaceX/Seattle (US) in SSO that was launched on Sun, 07 Jun 2026 UTC via an FALCON 9 launch vehicle from the Air Force Western Test Range (AFWTR). Payload-class satellites include a variety of spacecraft equipped with specific instruments for various scientific and technological missions. These include communications satellites like Starlink; space stations such as the ISS; scientific satellites like the Hubble; Earth observation satellites from companies like Planet Labs, Umbra, and HawkEye 360; GPS; miniature CubeSats for education and research; and military/defense satellites.

Loading next visibility...
Identifier
69439, 2026-126V
Orbit
SSO
Country
Flag of USUS
Related business
Manufacturer
SpaceX/Seattle
Mission
Operational spacecraft
Bus & Motor
STARLINK V2MO, Unknown motor
Mass
575 kg wet, ~530 kg dry
Launch date (UTC)
2026-06-07 (2 weeks ago)
Launch vehicle
FALCON 9
Launch site
Air Force Western Test Range (AFWTR)
Object type
Payload
Rocket body
Debris
Shape & HBR
Unknown
Radar Cross Section
RCS unknown

Expand to show TLE details & history
Last TLE update: 10 hours ago

TLE from 10 hours ago
0 STARLINK-37771
1 69439U 26126V   26171.41105506  .00089710  00000-0  59565-3 0  9995
2 69439  97.2839  31.5519 0001548  91.5250 268.6193 15.75204238  3257
Epoch: 2026-06-20T09:51Z
TLE epoch observation values (Epoch: 2026-06-20T09:51:55.157Z)
Latitude
0.00004°
Longitude
-25.05399°
Altitude
347.244 km
Speed
7.701 km/s
True Right ascension
02h 06m 12s
True Declination
0° 00' 00"
Sunlit
Object was in daylight at epoch
Visualization orbit readout
Latitude
Unknown
Longitude
Unknown
Altitude
Unknown
Speed
Unknown
Apparent Right ascension
Unknown
Apparent Declination
Unknown
Sunlit
N/A
Visualization observer readout
Local Sidereal Time
07:15:53
Azimuth
Unknown
Elevation
Unknown
Doppler factor
Unknown
Orbital elements
Apogee altitude
341.978 km
Perigee altitude
339.897 km
Semi-major axis
6,719.074 km
Eccentricity
0.00015
Inclination
97.2839°
RAAN
31.5519°
Arg. of periapsis
91.525°
True anomaly
268.60157°
Mean anomaly
268.6193°
Eccentric anomaly
268.61043°
Mean motion
3.94075 °/min
Orbital period
91.35 mins
BSTAR
0.00059565
Loading maneuver chart data...
Computing Atmospheric mass density...
Loading historical data...
Loading historical data...
Loading historical data...
Loading historical data...
Loading historical data...
Loading historical data...
Loading historical data...

Documentation

Showing up to 5 results
|